THORAD AGENA D DEB, 42532

Orbit data source: Space-Track

THORAD AGENA D DEB, 42532 is space debris in SSO originally from a launch on Wed, 08 Apr 1970 UTC launched from the Air Force Western Test Range (AFWTR). Debris objects in space refer to the collection of defunct objects orbiting the Earth. Examples of debris include non-operational satellites, rocket bodies, and fragments generated from explosions, collisions, or faulty payload assembly.

Loading next visibility...
Identifier
42532, 1970-025SN
Orbit
SSO
Country
Flag of USUS
Related business
Manufacturer
Unknown
Mission
Spacecraft
Bus & Motor
Unknown
Mass
Unknown
Launch date (UTC)
1970-04-08 (56 years ago)
Launch vehicle
Unknown
Launch site
Air Force Western Test Range (AFWTR)
Object type
Payload
Rocket body
Debris
Shape & HBR
Unknown shape, 0.1 m
Radar Cross Section
Small (<0.1 m²)

Expand to show TLE details & history
Last TLE update: 1 day ago

TLE from 1 day ago
0 THORAD AGENA D DEB
1 42532U 70025SN  25309.71597065  .00002875  00000-0  19241-2 0  9990
2 42532  99.9275 226.0901 0001680 327.1420  32.9638 14.01849026608351
Epoch: 2025-11-05T17:10Z
TLE epoch observation values (Epoch: 2025-11-05T17:10:59.864Z)
Latitude
0.00003°
Longitude
-76.84399°
Altitude
889.223 km
Speed
7.408 km/s
True Right ascension
15h 04m 21s
True Declination
0° 00' 00"
Sunlit
Object was in daylight at epoch
Visualization orbit readout
Latitude
Unknown
Longitude
Unknown
Altitude
Unknown
Speed
Unknown
Apparent Right ascension
Unknown
Apparent Declination
Unknown
Sunlit
N/A
Visualization observer readout
Local Sidereal Time
13:57:52
Azimuth
Unknown
Elevation
Unknown
Doppler factor
Unknown
Orbital elements
Apogee altitude
885.864 km
Perigee altitude
883.424 km
Semi-major axis
7,262.781 km
Eccentricity
0.00017
Inclination
99.9275°
RAAN
226.0901°
Arg. of periapsis
327.142°
True anomaly
32.97428°
Mean anomaly
32.9638°
Eccentric anomaly
32.96904°
Mean motion
3.50662 °/min
Orbital period
102.66 mins
BSTAR
0.0019241
Loading maneuver chart data...
Computing Atmospheric mass density...

Documentation

Showing up to 5 results
|